Regional Weather Roundup
Issued by NWS

Home | Current Version | Previous Version | Text Only | Print | Product List | Glossary Off
Versions: 1 2 3 4 5 6 7 8 9 10 11 12 13 14 15 16 17 18 19 20 21 22 23 24 25 26 27 28 29 30 31 32 33 34 35 36 37 38 39 40 41 42 43 44 45 46 47 48 49 50

000
ASUS43 KDTX 092010
RWRMI
MICHIGAN HOURLY REGIONAL WEATHER ROUNDUP
NATIONAL WEATHER SERVICE DETROIT/PONTIAC MI
400 PM EDT WED JUL 09 2014

NOTE: "FAIR" INDICATES FEW OR NO CLOUDS BELOW 12,000 FEET WITH NO
SIGNIFICANT WEATHER AND/OR OBSTRUCTION TO VISIBILITY.

MIZ047>049-052>055-059>063-066>070-074>076-081>083-092100-
SOUTHEAST LOWER MICHIGAN

CITY           SKY/WX    TMP DP  RH WIND       PRES   REMARKS
ADRIAN         SUNNY     76  54  46 NW14      29.93S
ALMA           MOSUNNY   69  50  50 NW3       29.95S
ANN ARBOR      MOSUNNY   76  57  51 NW9G17    29.92S
BAD AXE        PTSUNNY   69  50  50 NW8       29.94R
CARO           CLOUDY    70  55  59 CALM      29.94S
DETROIT CITY   PTSUNNY   77  53  43 N10       29.92R
DETROIT        MOSUNNY   76  57  51 W10       29.92R
FLINT          PTSUNNY   72  53  51 MISG      29.94S
GROSSE ILE     MOSUNNY   79  55  44 NW8       29.90S
HILLSDALE      MOSUNNY   75  57  54 W10       29.95R
HOWELL         MOSUNNY   71  55  58 NW8       29.94S

CITY           SKY/WX    TMP DP  RH WIND       PRES   REMARKS
JACKSON        MOSUNNY   74  58  57 NW8       29.94R
LAMBERTVILLE   MOSUNNY   79  54  41 NW9G16    29.92S
LANSING        PTSUNNY   71  54  54 NW10      29.95R
LAPEER         CLOUDY    69  53  57 NW9       29.95S
MASON          PTSUNNY   72  56  55 NW9G16    29.94S
MONROE         MOSUNNY   79  54  41 NW9G17    29.90S
MT. CLEMENS    PTSUNNY   73  55  54 VRB7      29.91S
PONTIAC        PTSUNNY   72  55  55 NW8       29.93R
PORT HOPE        N/A     66  56  70 SE9       29.93R
PORT HURON     CLOUDY    70  55  60 NW5       29.94R
TRI CITIES     MOSUNNY   72  52  49 NW10      29.95R
TROY           MOSUNNY   73  54  51 W5        29.94R
SAGINAW HB     PTSUNNY   72  52  49 W6        29.94R
$$
MIZ043>046-050>051-056>058-064>065-071>073-077>080-092100-
SOUTHWEST LOWER MICHIGAN

CITY           SKY/WX    TMP DP  RH WIND       PRES   REMARKS
BATTLE CREEK   MOSUNNY   73  56  54 NW14      29.96R
BENTON HARBOR  SUNNY     69  55  60 N5        29.97S
BIG RAPIDS     PTSUNNY   70  50  49 NW7G20    29.94S
COLDWATER      MOSUNNY   75  58  55 NW14      29.95S
FREMONT        CLOUDY    72  48  43 NW5       29.95S
HOLLAND        SUNNY     72  57  59 W7        29.98R
GRAND RAPIDS   PTSUNNY   72  54  53 NW10      29.95S
IONIA          MOCLDY    71  54  54 NW7       29.94S
KALAMAZOO      PTSUNNY   74  56  53 NW12      29.96R
LUDINGTON      SUNNY     69  56  63 NW6       29.96S
MARSHALL       PTSUNNY   71  56  60 NW9G17    29.94S
MOUNT PLEASANT PTSUNNY   71  51  50 W3        29.94S
MUSKEGON       PTSUNNY   69  52  54 W9        29.97R
SOUTH HAVEN    SUNNY     69  57  65 NW7       29.97S
$$
MIZ016>042-092100-
NORTHERN LOWER MICHIGAN

CITY           SKY/WX    TMP DP  RH WIND       PRES   REMARKS
ALPENA         CLOUDY    64  49  57 N8        29.92R
BEAVER ISLAND  PTSUNNY   62  55  76 W12       29.95R
BELLAIRE       CLOUDY    65  51  59 W6        29.95R
CADILLAC       CLOUDY    66  50  55 NW6       29.95R
CHARLEVOIX     PTSUNNY   63  53  72 W13       29.98R
FRANKFORT      CLOUDY    65  50  58 W5        29.96R
GAYLORD        CLOUDY    62  49  62 VRB7      29.94R
GRAYLING       CLOUDY    68  46  45 W12G17    29.95R
HARBOR SPRINGS PTSUNNY   61  53  73 SW9       29.93R
HOUGHTON LAKE  CLOUDY    67  48  50 W6        29.94R
MANISTEE       SUNNY     66  48  52 NW7       29.97S
OSCODA         CLOUDY    68  49  51 E7        29.92R
PELLSTON       CLOUDY    66  49  54 W10       29.93R
ROGERS CITY    CLOUDY    65  50  57 NW3       29.92S
TRAVERSE CITY  PTSUNNY   68  50  52 NW10      29.93R
$$
MIZ007>008-015-092100-
EASTERN UPPER MICHIGAN

CITY           SKY/WX    TMP DP  RH WIND       PRES   REMARKS
KINROSS        PTSUNNY   63  52  67 N12G18    29.90R
MACKINAC ISLAN MOSUNNY   61  54  76 SW15G22   29.91R
NEWBERRY       PTSUNNY   64  48  57 W17G23    29.92R
S. S. MARIE    PTSUNNY   63  46  54 W13G21    29.90R
MUNISING         N/A     61  45  55 NW15      29.96R
$$
MIZ004>006-011>014-085-092100-
CENTRAL UPPER MICHIGAN

CITY           SKY/WX    TMP DP  RH WIND       PRES   REMARKS
MANISTIQUE     PTSUNNY   68  50  52 NW15      29.93R
ESCANABA       PTSUNNY   64  54  68 N7        29.94R
MENOMINEE      CLOUDY    63  55  77 NW3       29.95S
$$
MIZ001>003-009>011-084-092100-
WESTERN UPPER MICHIGAN

CITY           SKY/WX    TMP DP  RH WIND       PRES   REMARKS
IRON MOUNTAIN  PTSUNNY   67  48  50 W12       29.95R
HOUGHTON       SUNNY     63  48  58 W16       29.96R
COPPER HARBOR    N/A     62  48  60 N16       29.93S
$$

ABBREVIATIONS USED IN REMARKS
   TC - TEMPERATURE IN CELSIUS
  WCI - WIND CHILL INDEX
   HX - HEAT INDEX
  VSB - VISIBILITY



USA.gov is the U.S. government's official web portal to all federal, state and local government web resources and services.